User: anonymous   Login
Location: Unspecified
(0.0000°N, 0.0000°E)
Time: 23:53:39
(UTC+02:00)
Language:

Delta 2 Rocket - Orbit

View from above orbital plane
View from above orbital plane
View from above satellite
View from above satellite

Ground track
Ground track

The orbit data is extracted from the following two-line orbital elements,

1 20453U 90008B   17266.46276594  .00001849  00000-0  10627-3 0  9997
2 20453  35.6280  12.8063 0289164 265.7882  90.9740 14.83522686462802
Epoch (UTC): 23 September 2017 11:06:22
Eccentricity: 0.0289164
inclination: 35.6280°
perigee height: 416 km
apogee height: 820 km
right ascension of ascending node: 12.8063°
argument of perigee: 265.7882°
revolutions per day: 14.83522686
mean anomaly at epoch: 90.9740°
orbit number at epoch: 46280

The dashed part of the orbit path shows where the satellite is in the earth's shadow,  

DLR